Location: Columbia, SC
(34.0000°N, 81.0300°W)
Time: 01:54:24
(UTC-05:00)

Tiangong 1 - Visible Passes

Search period start: 23 November 2014 00:00
Search period end: 03 December 2014 00:00
Orbit: 338 x 351 km, 42.8° (Epoch: 22 November)

Date Brightness Start Highest point End Pass type
(mag) Time Alt. Az. Time Alt. Az. Time Alt. Az.
23 Nov 3.8 05:11:54 13° NE 05:11:54 13° NE 05:12:17 10° NE visible
24 Nov 3.3 05:34:10 15° NNE 05:34:10 15° NNE 05:35:13 10° NNE visible
25 Nov 3.1 05:56:12 14° N 05:56:36 14° N 05:58:16 10° NE visible
26 Nov 3.1 06:18:02 11° NNW 06:19:50 16° N 06:21:44 10° NE visible
27 Nov 2.5 06:40:23 10° NW 06:42:48 24° NNE 06:45:14 10° ENE visible
28 Nov 3.3 05:29:52 16° NNE 05:29:52 16° NNE 05:31:13 10° NE visible
29 Nov 2.4 05:51:15 23° N 05:51:55 25° NNE 05:54:23 10° ENE visible
30 Nov 1.1 06:12:29 20° NW 06:14:14 59° NNE 06:17:03 10° ESE visible
01 Dec 4.0 05:02:18 14° ENE 05:02:18 14° ENE 05:02:53 10° E visible
01 Dec 1.6 06:33:37 11° WNW 06:36:12 40° SW 06:38:54 10° SE visible
02 Dec 2.4 05:23:20 35° E 05:23:20 35° E 05:25:12 10° ESE visible
